Regional Weather Roundup
Issued by NWS Sterling, VA

Home | Current Version | Previous Version | Graphics & Text | Print | Product List | Glossary On
Versions: 1 2 3 4 5 6 7 8 9 10 11 12 13 14 15 16 17 18 19 20 21 22 23 24 25 26 27 28 29 30 31 32 33 34 35 36 37 38 39 40 41 42 43 44 45 46 47 48 49 50
000
ASUS41 KLWX 260211
RWRLWX

REGIONAL WEATHER ROUNDUP
NATIONAL WEATHER SERVICE BALTIMORE MD/WASHINGTON DC
1000 PM EDT TUE APR 25 2017

Note: "FAIR" indicates few or no clouds below 12,000 feet
with no significant weather and/or obstructions to visibility.
 TC=TEMPERATURE CELSIUS

 * =Non NWS site. Station does not report precipitation (e.g. rain,
    snow, etc.), thunder, or fog.

DCZ001-MDZ009-015-VAZ040>042-051-053>054-260300-
WASHINGTON METRO

CITY           SKY/WX    TMP DP  RH WIND       PRES   REMARKS
WASHINGTON NAT CLOUDY    59  58  96 N13       29.75R
DULLES         DRIZZLE   58  56  93 N7        29.76R FOG
ANDREWS AFB    CLOUDY    57  56  97 N10       29.73R FOG
FT BELVOIR     CLOUDY    59  55  88 N3        29.74R
QUANTICO       CLOUDY    60  58  92 N9        29.75R
COLLEGE PARK*  CLOUDY    56  55  95 N7        29.75R
LEESBURG*      CLOUDY    59  59 100 N8        29.78R FOG
MANASSAS*        N/A     58  57  97 N9        29.76R

$$

MDZ006>007-011-014-260300-
BALTIMORE METRO

CITY           SKY/WX    TMP DP  RH WIND       PRES   REMARKS
BWI AIRPORT    LGT RAIN  57  57 100 NE14      29.74S
MD SCIENCE CTR   N/A     59  55  87 MISG      29.75S
MARTIN STATE   HVY RAIN  57  57 100 N3        29.77R
ANNAPOLIS      LGT RAIN  58  57  97 N6        29.73S FOG
FORT MEADE*    CLOUDY    55  54  94 NE3       29.77S

$$

MDZ012-015-019>023-260300-
MARYLAND EASTERN SHORE

CITY           SKY/WX    TMP DP  RH WIND       PRES   REMARKS
OCEAN CITY     FOG       59  59 100 NE7       29.67R VSB 3/4
SALISBURY      LGT RAIN  61  61 100 N7        29.67R
BAY BRIDGE AP* LGT RAIN  57  55  94 NE7       29.74R FOG
CAMBRIDGE*     CLOUDY    59  59 100 N12G18    29.70R FOG
EASTON*        CLOUDY    59  57  94 NE12      29.75R

$$

MDZ017>025-260300-
SOUTHERN MARYLAND

CITY           SKY/WX    TMP DP  RH WIND       PRES   REMARKS
PATUXENT RIVER CLOUDY    59  59 100 N14       29.69R
ST INIGOES     NOT AVBL
LEONARDTOWN*   CLOUDY    59  55  88 N6        29.71S

$$

MDZ003>005-260300-
NORTH CENTRAL MARYLAND

CITY           SKY/WX    TMP DP  RH WIND       PRES   REMARKS
FREDERICK*     DRIZZLE  N/A N/A N/A N8        29.81R
HAGERSTOWN APT CLOUDY    56  55  97 N7        29.80R FOG
WESTMINSTER*   CLOUDY    55  55 100 NE8         N/A  FOG

$$

MDZ501>502-260300-
WESTERN MARYLAND

CITY           SKY/WX    TMP DP  RH WIND       PRES   REMARKS
OAKLAND*       FOG       46  46 100 E6        29.81S VSB 3/4
CUMBERLAND*    CLOUDY    55  55 100 CALM      29.84S

$$

VAZ025>031-260300-
SHENANDOAH VALLEY

CITY           SKY/WX    TMP DP  RH WIND       PRES   REMARKS
WINCHESTER*    CLOUDY    54  54 100 N5        29.79R FOG
FRONT ROYAL*   CLOUDY    54  54 100 NW3       29.78R
LURAY*         CLOUDY    55  54  94 CALM      29.79R
NEW MARKET*    CLOUDY    55  53  95 CALM      29.79R
STAUNTON*      CLOUDY    54  52  94 N6        29.80S
WAYNESBORO*    CLOUDY    53  53 100 N8        29.78S

$$

WVZ021-048>050-054>055-260300-
EASTERN WEST VIRGINIA PANHANDLE

CITY           SKY/WX    TMP DP  RH WIND       PRES   REMARKS
MARTINSBURG    CLOUDY    56  54  93 N9        29.79R FOG
PETERSBURG*    CLOUDY    56  55  95 CALM      29.82R

$$

VAZ036>039-050-260300-
CENTRAL FOOTHILLS

CITY           SKY/WX    TMP DP  RH WIND       PRES   REMARKS
CHARLOTTESVILL CLOUDY    58  56  93 NW3       29.75R
CULPEPER*      CLOUDY    58  58  99 N3        29.77R
ORANGE*        CLOUDY    55  55 100 CALM      29.76R
GORDONSVILLE*  CLOUDY    57  57  98 N3        29.75R
WARRENTON*     CLOUDY    59  56  88 N8        29.75R

$$

VAZ055>057-260300-
NORTH AND CENTRAL PIEDMONT

CITY           SKY/WX    TMP DP  RH WIND       PRES   REMARKS
FREDERICKSBRG* CLOUDY    59  59 100 N5        29.73S
STAFFORD*      CLOUDY    57  57 100 N7        29.78R FOG

$$

NCZ024-NYZ072-PAZ021-071-VAZ022-071-260300-
OTHER REGIONAL OBSERVATIONS

CITY           SKY/WX    TMP DP  RH WIND       PRES   REMARKS
NEW YORK CITY  RAIN      51  51 100 NE16G28   29.91F FOG
PHILADELPHIA   RAIN      56  54  93 NE17G24   29.79S
PITTSBURGH     CLOUDY    56  54  93 E6        29.80S
ROANOKE        CLOUDY    57  53  86 N5        29.80R
RICHMOND       DRIZZLE   60  60 100 N10       29.71R FOG
RALEIGH        MOCLDY    62  59  90 VRB3      29.74R

$$

ANZ530>537-260300-
MARINE OBSERVATIONS

STATION/POSITION TIME  TEMP    WIND        PRES
                       AIR SEA DIR/SP/G
                 (UTC) (F)     (DEG/KT/KT) (MB)
THOMAS PT LIGHT  0200   56 56   20/ 15/ 16   N/A
BALT KEY BRIDGE  0148   57      50/ 13/ 14 1007.0F
COVE POINT       0148   58     360/  9/ 13 1006.4R
LEWISETTA        0148   60 61   10/ 10/ 16 1004.6R
SOLOMONS ISLAND  0148   59 60  360/ 13/ 17   N/A
PINEY POINT      0148           30/ 13/ 14   N/A

$$




USA.gov is the U.S. government's official web portal to all federal, state and local government web resources and services.